Shenandoah, IA

5:16 PM CST on December 18, 2017 (GMT -0600)
Shenandoah Municipal

Weather History for KSDA - August, 2012

Change the Weather History Date:

Friday, August 24, 2012

  Actual Average Record
Temperature  
Mean Temperature 73 °F -  
Max Temperature 80 °F 84 °F 98 °F (2003)
Min Temperature 66 °F 61 °F 44 °F (2015)
Cooling Degree Days 8    
Growing Degree Days 23 (Base 50)    
Moisture  
Dew Point 66 °F    
Average Humidity 72    
Maximum Humidity 88    
Minimum Humidity 39    
Precipitation  
Precipitation 0.52 in - - ()
Sea Level Pressure  
Sea Level Pressure 29.94 in    
Wind  
Wind Speed 8 mph (South)    
Max Wind Speed 20 mph    
Max Gust Speed 26 mph    
Visibility 10 miles    
Events Rain    
Averages and records for this station are not official NWS values.
T = Trace of Precipitation, MM = Missing Value Source: NWS Daily Summary

Daily Weather History Graph

Daily Weather History Graph

Search for Another Location

Airport or City:

Trip Planner

Search our weather history database for the weather conditions in past years. The results will help you decide how hot, cold, wet, or windy it might be!

Date:

Astronomy

Aug. 24, 2012 Rise Set
Actual Time 6:41 AM CDT 8:05 PM CDT
Civil Twilight 6:12 AM CDT 8:34 PM CDT
Nautical Twilight 5:38 AM CDT 9:08 PM CDT
Astronomical Twilight 5:01 AM CDT 9:44 PM CDT
Moon 2:38 PM CDT (8/24) No Moon Set
Length of Visible Light 14h 21m
Length of Day
13h 24m
First Quarter, 52% of the Moon is Illuminated
Aug 24
First Quarter
Aug 31
Full
Sep 8
Last Quarter
Sep 15
New
Sep 22
First Quarter

Hourly Weather History & Observations

Time (CDT) Temp. Heat Index Dew Point Humidity Pressure Visibility Wind Dir Wind Speed Gust Speed Precip Events Conditions
12:15 AM 80.6 °F 80.3 °F 53.6 °F 39% 29.92 in 10.0 mi South 12.7 mph - N/A   Scattered Clouds
12:35 AM 80.6 °F 80.3 °F 53.6 °F 39% 29.92 in 10.0 mi SSW 10.4 mph - N/A   Scattered Clouds
12:55 AM 78.8 °F - 57.2 °F 47% 29.93 in 10.0 mi SW 9.2 mph - N/A   Scattered Clouds
1:15 AM 75.2 °F - 62.6 °F 65% 29.93 in 10.0 mi WSW 5.8 mph - N/A   Clear
1:35 AM 75.2 °F - 64.4 °F 69% 29.93 in 10.0 mi SW 6.9 mph - N/A   Clear
1:55 AM 75.2 °F - 66.2 °F 73% 29.93 in 10.0 mi SW 5.8 mph - N/A   Scattered Clouds
2:15 AM 73.4 °F - 66.2 °F 78% 29.93 in 10.0 mi SSW 8.1 mph - N/A   Scattered Clouds
2:35 AM 75.2 °F - 66.2 °F 73% 29.94 in 10.0 mi SSW 5.8 mph - N/A   Scattered Clouds
2:55 AM 73.4 °F - 64.4 °F 73% 29.94 in 10.0 mi Calm Calm - N/A   Clear
3:15 AM 71.6 °F - 64.4 °F 78% 29.94 in 10.0 mi Calm Calm - N/A   Scattered Clouds
3:35 AM 71.6 °F - 64.4 °F 78% 29.94 in 10.0 mi Calm Calm - N/A   Scattered Clouds
3:55 AM 69.8 °F - 62.6 °F 78% 29.94 in 10.0 mi Calm Calm - N/A   Scattered Clouds
4:15 AM 66.2 °F - 62.6 °F 88% 29.94 in 10.0 mi Calm Calm - N/A   Scattered Clouds
4:35 AM 68.0 °F - 62.6 °F 83% 29.95 in 10.0 mi SSW 5.8 mph - N/A   Scattered Clouds
4:55 AM 71.6 °F - 62.6 °F 73% 29.94 in 10.0 mi South 6.9 mph - N/A   Scattered Clouds
5:15 AM 69.8 °F - 62.6 °F 78% 29.94 in 10.0 mi South 4.6 mph - N/A   Scattered Clouds
5:35 AM 69.8 °F - 62.6 °F 78% 29.93 in 10.0 mi South 6.9 mph - N/A   Scattered Clouds
7:55 AM 73.4 °F - 66.2 °F 78% 29.96 in 10.0 mi South 6.9 mph - N/A   Clear
8:15 AM 73.4 °F - 66.2 °F 78% 29.97 in 10.0 mi South 10.4 mph - N/A   Clear
8:35 AM 73.4 °F - 64.4 °F 73% 29.97 in 10.0 mi South 8.1 mph - N/A   Clear
8:55 AM 73.4 °F - 64.4 °F 73% 29.98 in 10.0 mi South 10.4 mph - N/A   Clear
9:15 AM 75.2 °F - 64.4 °F 69% 29.98 in 10.0 mi South 12.7 mph 16.1 mph N/A   Clear
9:35 AM 75.2 °F - 66.2 °F 73% 29.98 in 10.0 mi South 9.2 mph - N/A   Clear
9:55 AM 75.2 °F - 66.2 °F 73% 29.98 in 10.0 mi South 9.2 mph - N/A   Clear
10:15 AM 75.2 °F - 66.2 °F 73% 29.98 in 10.0 mi SSW 8.1 mph - N/A   Scattered Clouds
10:35 AM 75.2 °F - 66.2 °F 73% 29.98 in 10.0 mi SSE 8.1 mph - N/A   Scattered Clouds
10:55 AM 75.2 °F - 66.2 °F 73% 29.98 in 10.0 mi South 8.1 mph - N/A   Clear
11:15 AM 78.8 °F - 68.0 °F 69% 29.98 in 10.0 mi South 12.7 mph - N/A   Clear
11:35 AM 78.8 °F - 68.0 °F 69% 29.97 in 10.0 mi SSW 10.4 mph - N/A   Clear
11:55 AM 78.8 °F - 68.0 °F 69% 29.97 in 10.0 mi South 8.1 mph - N/A   Clear
12:15 PM 78.8 °F - 68.0 °F 69% 29.96 in 10.0 mi South 9.2 mph - N/A   Clear
12:35 PM 80.6 °F 83.9 °F 69.8 °F 70% 29.96 in 10.0 mi South 11.5 mph - N/A   Clear
12:55 PM 80.6 °F 83.9 °F 69.8 °F 70% 29.95 in 10.0 mi South 12.7 mph - N/A   Clear
1:15 PM 78.8 °F - 69.8 °F 74% 29.95 in 10.0 mi South 9.2 mph - N/A   Clear
1:35 PM 78.8 °F - 69.8 °F 74% 29.95 in 10.0 mi South 10.4 mph - N/A   Clear
1:55 PM 78.8 °F - 69.8 °F 74% 29.94 in 10.0 mi SSE 11.5 mph - N/A   Clear
2:15 PM 80.6 °F 83.9 °F 69.8 °F 70% 29.94 in 10.0 mi South 11.5 mph 17.3 mph N/A   Clear
2:35 PM 80.6 °F 83.9 °F 69.8 °F 70% 29.94 in 10.0 mi South 12.7 mph 18.4 mph N/A   Clear
2:55 PM 80.6 °F 83.9 °F 69.8 °F 70% 29.94 in 10.0 mi South 12.7 mph - N/A   Clear
3:15 PM 78.8 °F - 68.0 °F 69% 29.94 in 10.0 mi South 11.5 mph 19.6 mph N/A   Clear
3:35 PM 78.8 °F - 66.2 °F 65% 29.94 in 10.0 mi South 10.4 mph - N/A   Clear
3:55 PM 78.8 °F - 66.2 °F 65% 29.93 in 10.0 mi South 10.4 mph - N/A   Clear
4:15 PM 78.8 °F - 66.2 °F 65% 29.93 in 10.0 mi South 9.2 mph - N/A   Clear
4:35 PM 78.8 °F - 66.2 °F 65% 29.92 in 10.0 mi SSE 9.2 mph - N/A   Scattered Clouds
4:55 PM 77.0 °F - 64.4 °F 65% 29.92 in 10.0 mi SSE 5.8 mph - N/A   Scattered Clouds
5:15 PM 77.0 °F - 64.4 °F 65% 29.91 in 10.0 mi SSE 6.9 mph - N/A   Clear
5:35 PM 77.0 °F - 66.2 °F 69% 29.91 in 10.0 mi SE 3.5 mph - N/A   Scattered Clouds
5:55 PM 77.0 °F - 64.4 °F 65% 29.91 in 10.0 mi SE 3.5 mph - N/A   Clear
6:15 PM 77.0 °F - 66.2 °F 69% 29.90 in 10.0 mi SE 5.8 mph - N/A   Clear
6:35 PM 77.0 °F - 66.2 °F 69% 29.90 in 10.0 mi ESE 4.6 mph - N/A   Scattered Clouds
6:55 PM 77.0 °F - 66.2 °F 69% 29.89 in 10.0 mi ESE 5.8 mph - N/A   Scattered Clouds
7:15 PM 77.0 °F - 66.2 °F 69% 29.89 in 10.0 mi ESE 4.6 mph - N/A   Scattered Clouds
7:35 PM 77.0 °F - 66.2 °F 69% 29.89 in 10.0 mi ESE 4.6 mph - N/A   Scattered Clouds
7:55 PM 77.0 °F - 66.2 °F 69% 29.89 in 10.0 mi SE 3.5 mph - N/A   Scattered Clouds
8:15 PM 75.2 °F - 66.2 °F 73% 29.89 in 10.0 mi SE 3.5 mph - N/A   Scattered Clouds
8:35 PM 75.2 °F - 66.2 °F 73% 29.89 in 10.0 mi ESE 4.6 mph - N/A   Scattered Clouds
8:55 PM 73.4 °F - 66.2 °F 78% 29.90 in 10.0 mi ESE 5.8 mph - N/A   Scattered Clouds
9:15 PM 73.4 °F - 66.2 °F 78% 29.90 in 10.0 mi SE 3.5 mph - N/A   Scattered Clouds
9:35 PM 75.2 °F - 66.2 °F 73% 29.92 in 10.0 mi West 11.5 mph 17.3 mph N/A   Mostly Cloudy
9:55 PM 73.4 °F - 68.0 °F 83% 29.93 in 10.0 mi West 4.6 mph - N/A Rain Light Rain
10:15 PM 73.4 °F - 66.2 °F 78% 29.92 in 10.0 mi Calm Calm - N/A   Mostly Cloudy
10:35 PM 73.4 °F - 68.0 °F 83% 29.92 in 10.0 mi Calm Calm - N/A   Overcast
10:55 PM 73.4 °F - 68.0 °F 83% 29.92 in 5.0 mi SSW 4.6 mph - N/A Rain Rain
11:15 PM 71.6 °F - 68.0 °F 88% 29.93 in 5.0 mi South 16.1 mph - 0.10 in Rain Heavy Rain
11:35 PM 69.8 °F - 64.4 °F 83% 29.94 in 7.0 mi SSW 19.6 mph 26.5 mph 0.39 in Rain Heavy Rain
11:55 PM 71.6 °F - 66.2 °F 83% 29.93 in 10.0 mi South 15.0 mph - 0.52 in Rain Heavy Rain